FW8685 Weather Reports


time (UTC)temp
C
wind
direction
speed
KPH
gust
KPH
rain 1hr
cm
rain 24hr
cm
rain mn
cm
humidity
%
barometer
mb
20260904045525 27 109 9.7 19.3 0.00 0.00 0.00 69 1009.6
20260904045024 27 113 12.9 19.3 0.00 0.00 0.00 69 1009.7
20260904044545 27 105 11.3 25.7 0.00 0.00 0.00 69 1009.6
20260904044023 27 102 12.9 25.7 0.00 0.00 0.00 69 1009.5
20260904043525 27 107 16.1 25.7 0.00 0.00 0.00 68 1009.5
20260904043050 27 101 16.1 25.7 0.00 0.00 0.00 68 1009.5
20260904042523 27 121 14.5 22.5 0.00 0.00 0.00 68 1009.6
20260904042024 27 102 12.9 24.1 0.00 0.00 0.00 68 1009.5
20260904041543 27 106 16.1 24.1 0.00 0.00 0.00 68 1009.6
20260904041023 27 109 12.9 20.9 0.00 0.00 0.00 67 1009.6
20260904040525 27 96 12.9 20.9 0.00 0.00 0.00 67 1009.6
20260904040058 27 108 14.5 24.1 0.00 0.00 0.00 67 1009.6
20260904035523 28 101 12.9 24.1 0.00 0.00 0.00 67 1009.6
20260904035025 28 98 12.9 17.7 0.00 0.00 0.00 67 1009.7
20260904034550 28 102 12.9 17.7 0.00 0.00 0.00 66 1009.7
20260904034024 28 100 11.3 20.9 0.00 0.00 0.00 66 1009.8
20260904033525 28 111 12.9 20.9 0.00 0.00 0.00 66 1009.8
20260904033047 28 100 12.9 20.9 0.00 0.00 0.00 65 1009.8
20260904032524 28 107 12.9 17.7 0.00 0.00 0.00 65 1009.8
20260904032025 28 113 11.3 17.7 0.00 0.00 0.00 65 1009.7
20260904031544 28 103 11.3 20.9 0.00 0.00 0.00 64 1009.7
20260904031025 28 105 11.3 20.9 0.00 0.00 0.00 64 1009.7
20260904030521 29 105 12.9 20.9 0.00 0.00 0.00 63 1009.8
20260904030044 29 105 11.3 16.1 0.00 0.00 0.00 63 1009.6
20260904025524 29 105 9.7 20.9 0.00 0.00 0.00 63 1009.7
20260904025024 29 96 12.9 20.9 0.00 0.00 0.00 62 1009.6
20260904024548 30 109 12.9 20.9 0.00 0.00 0.00 62 1009.7
20260904024024 30 103 14.5 20.9 0.00 0.00 0.00 61 1009.6
20260904023526 30 111 12.9 20.9 0.00 0.00 0.00 61 1009.6
20260904023056 30 96 12.9 19.3 0.00 0.00 0.00 60 1009.6
20260904022523 30 101 12.9 22.5 0.00 0.00 0.00 60 1009.5
20260904022024 30 105 12.9 25.7 0.00 0.00 0.00 60 1009.3
20260904021543 30 101 16.1 25.7 0.00 0.00 0.00 59 1009.3
20260904021024 30 103 16.1 25.7 0.00 0.00 0.00 59 1009.3
20260904020524 30 107 14.5 25.7 0.00 0.00 0.00 58 1009.2
20260904020042 31 107 14.5 22.5 0.00 0.00 0.00 58 1009.2
20260904015528 31 115 14.5 22.5 0.00 0.00 0.00 57 1009.0
20260904015024 31 116 16.1 22.5 0.00 0.00 0.00 57 1008.9
20260904014558 31 114 16.1 25.7 0.00 0.00 0.00 56 1008.8
20260904014027 31 109 16.1 25.7 0.00 0.00 0.00 56 1008.7
20260904013524 31 106 17.7 25.7 0.00 0.00 0.00 55 1008.6
20260904013048 31 115 17.7 30.6 0.00 0.00 0.00 55 1008.5
20260904012523 32 123 20.9 30.6 0.00 0.00 0.00 54 1008.3
20260904012025 32 104 20.9 29.0 0.00 0.00 0.00 53 1008.2
20260904011544 32 105 16.1 27.4 0.00 0.00 0.00 53 1008.2
20260904011024 32 110 16.1 27.4 0.00 0.00 0.00 52 1008.0
20260904010524 32 95 16.1 30.6 0.00 0.00 0.00 51 1008.0
20260904010051 32 107 19.3 30.6 0.00 0.00 0.00 51 1008.0
20260904005523 33 112 17.7 25.7 0.00 0.00 0.00 50 1008.0
20260904005025 33 111 14.5 20.9 0.00 0.00 0.00 49 1008.0
20260904004546 33 93 14.5 20.9 0.00 0.00 0.00 49 1007.9
20260904004024 33 98 12.9 22.5 0.00 0.00 0.00 48 1007.8
20260904003525 33 107 12.9 22.5 0.00 0.00 0.00 47 1007.8
20260904003046 34 105 14.5 20.9 0.00 0.00 0.00 46 1007.7
20260904002524 34 110 12.9 24.1 0.00 0.00 0.00 45 1007.7
20260904002024 35 109 16.1 27.4 0.00 0.00 0.00 44 1007.6
20260904001545 35 104 17.7 29.0 0.00 0.00 0.00 44 1007.7
20260904001023 35 91 16.1 32.2 0.00 0.00 0.00 43 1007.6
20260904000526 35 111 17.7 32.2 0.00 0.00 0.00 43 1007.6
20260904000044 35 107 17.7 30.6 0.00 0.00 0.00 42 1007.6
20260903235524 35 144 12.9 30.6 0.00 0.00 0.00 42 1007.6
20260903235024 35 120 16.1 27.4 0.00 0.00 0.00 41 1007.5
20260903234547 36 125 16.1 29.0 0.00 0.00 0.00 41 1007.5
20260903234024 36 127 19.3 35.4 0.00 0.00 0.00 41 1007.5
20260903233526 36 110 22.5 35.4 0.00 0.00 0.00 40 1007.5
20260903233051 36 124 20.9 32.2 0.00 0.00 0.00 40 1007.5
20260903232524 36 118 19.3 33.8 0.00 0.00 0.00 39 1007.5
20260903232026 36 108 19.3 33.8 0.00 0.00 0.00 38 1007.5
20260903231548 36 117 19.3 32.2 0.00 0.00 0.00 38 1007.4
20260903231026 36 115 17.7 32.2 0.00 0.00 0.00 38 1007.5
20260903230528 37 113 19.3 32.2 0.00 0.00 0.00 38 1007.5
20260903230053 37 111 19.3 32.2 0.00 0.00 0.00 38 1007.5
20260903225526 37 117 20.9 32.2 0.00 0.00 0.00 38 1007.5
20260903225023 37 107 16.1 27.4 0.00 0.00 0.00 37 1007.4
20260903224605 37 117 16.1 38.6 0.00 0.00 0.00 37 1007.5
20260903224025 37 124 16.1 38.6 0.00 0.00 0.00 36 1007.5
20260903223524 37 106 19.3 37.0 0.00 0.00 0.00 36 1007.5
20260903223042 37 120 17.7 32.2 0.00 0.00 0.00 37 1007.4
20260903222528 37 111 17.7 30.6 0.00 0.00 0.00 37 1007.4
20260903222026 37 125 19.3 32.2 0.00 0.00 0.00 36 1007.3
20260903221542 37 107 20.9 32.2 0.00 0.00 0.00 36 1007.4
20260903221023 37 124 22.5 32.2 0.00 0.00 0.00 35 1007.4
20260903220523 37 117 16.1 30.6 0.00 0.00 0.00 35 1007.4
20260903220048 37 117 19.3 32.2 0.00 0.00 0.00 34 1007.4
20260903215535 38 107 19.3 32.2 0.00 0.00 0.00 35 1007.6
20260903215025 38 90 19.3 32.2 0.00 0.00 0.00 35 1007.6
20260903214605 38 131 16.1 32.2 0.00 0.00 0.00 34 1007.7
20260903214024 38 110 17.7 32.2 0.00 0.00 0.00 34 1007.6
20260903213525 38 96 20.9 32.2 0.00 0.00 0.00 33 1007.8
20260903213050 38 106 19.3 30.6 0.00 0.00 0.00 34 1007.8
20260903212528 38 94 17.7 30.6 0.00 0.00 0.00 36 1007.8
20260903212026 38 98 16.1 32.2 0.00 0.00 0.00 36 1007.8
20260903211543 37 126 19.3 35.4 0.00 0.00 0.00 37 1007.9
20260903211025 37 94 22.5 35.4 0.00 0.00 0.00 36 1008.0
20260903210524 38 101 22.5 32.2 0.00 0.00 0.00 37 1008.0
20260903210111 38 92 20.9 40.2 0.00 0.00 0.00 36 1008.1
20260903205525 38 98 22.5 40.2 0.00 0.00 0.00 38 1008.1
20260903205024 38 119 19.3 32.2 0.00 0.00 0.00 36 1008.3
20260903204548 37 106 19.3 33.8 0.00 0.00 0.00 38 1008.3
20260903204025 38 78 19.3 33.8 0.00 0.00 0.00 37 1008.4
20260903203525 37 123 20.9 33.8 0.00 0.00 0.00 37 1008.3
20260903203105 37 113 19.3 37.0 0.00 0.00 0.00 37 1008.5
20260903202524 37 100 25.7 37.0 0.00 0.00 0.00 37 1008.5
20260903202024 37 111 19.3 32.2 0.00 0.00 0.00 37 1008.6
20260903201548 37 117 19.3 40.2 0.00 0.00 0.00 37 1008.6
20260903201024 37 143 17.7 40.2 0.00 0.00 0.00 37 1008.7
20260903200523 37 112 27.4 40.2 0.00 0.00 0.00 38 1008.6
20260903200052 37 124 20.9 40.2 0.00 0.00 0.00 38 1008.7
20260903195525 37 134 19.3 32.2 0.00 0.00 0.00 36 1008.7
20260903195023 37 126 20.9 29.0 0.00 0.00 0.00 39 1008.7
20260903194542 37 94 20.9 35.4 0.00 0.00 0.00 39 1008.8
20260903194025 37 111 24.1 38.6 0.00 0.00 0.00 39 1008.9
20260903193522 37 106 19.3 38.6 0.00 0.00 0.00 39 1009.0
20260903193046 37 115 17.7 33.8 0.00 0.00 0.00 39 1009.0
20260903192525 37 113 19.3 37.0 0.00 0.00 0.00 40 1009.1
20260903192024 36 110 19.3 38.6 0.00 0.00 0.00 41 1009.1
20260903191545 37 115 20.9 38.6 0.00 0.00 0.00 40 1009.2
20260903191024 36 119 20.9 37.0 0.00 0.00 0.00 40 1009.3
20260903190524 36 119 20.9 32.2 0.00 0.00 0.00 42 1009.4
20260903190045 36 108 20.9 32.2 0.00 0.00 0.00 42 1009.4
20260903185525 36 98 22.5 32.2 0.00 0.00 0.00 41 1009.4
20260903185024 37 118 17.7 32.2 0.00 0.00 0.00 41 1009.6
20260903184548 37 92 16.1 27.4 0.00 0.00 0.00 41 1009.6
20260903184026 37 146 17.7 30.6 0.00 0.00 0.00 41 1009.7
20260903183524 36 124 19.3 30.6 0.00 0.00 0.00 41 1009.9
20260903183049 36 121 22.5 37.0 0.00 0.00 0.00 43 1009.9
20260903182525 36 136 17.7 37.0 0.00 0.00 0.00 42 1010.0
20260903182023 36 139 17.7 33.8 0.00 0.00 0.00 43 1010.0
20260903181544 36 155 20.9 33.8 0.00 0.00 0.00 43 1010.2
20260903181023 36 99 20.9 33.8 0.00 0.00 0.00 42 1010.2
20260903180525 36 101 12.9 33.8 0.00 0.00 0.00 44 1010.2
20260903180046 35 107 20.9 37.0 0.00 0.00 0.00 46 1010.3
20260903175524 35 110 22.5 37.0 0.00 0.00 0.00 46 1010.4
20260903175025 35 107 20.9 38.6 0.00 0.00 0.00 46 1010.4
20260903174542 35 115 25.7 38.6 0.00 0.00 0.00 47 1010.4
20260903174025 35 112 20.9 32.2 0.00 0.00 0.00 47 1010.4
20260903173529 35 136 20.9 32.2 0.00 0.00 0.00 46 1010.6
20260903173048 34 142 19.3 35.4 0.00 0.00 0.00 47 1010.7
20260903172526 35 130 19.3 38.6 0.00 0.00 0.00 47 1010.7
20260903172025 34 135 22.5 38.6 0.00 0.00 0.00 46 1010.8
20260903171547 34 121 24.1 38.6 0.00 0.00 0.00 47 1010.9
20260903171024 34 123 20.9 35.4 0.00 0.00 0.00 47 1010.8
20260903170523 34 131 20.9 32.2 0.00 0.00 0.00 48 1011.0
20260903170047 34 130 20.9 37.0 0.00 0.00 0.00 48 1011.1
20260903165525 33 98 20.9 38.6 0.00 0.00 0.00 50 1011.1
20260903165025 33 105 22.5 38.6 0.00 0.00 0.00 49 1011.1
20260903164549 33 146 24.1 37.0 0.00 0.00 0.00 50 1011.1
20260903164028 33 138 20.9 33.8 0.00 0.00 0.00 49 1011.2
20260903163526 33 146 19.3 41.8 0.00 0.00 0.00 52 1011.2
20260903163045 33 99 22.5 41.8 0.00 0.00 0.00 51 1011.2
20260903162527 33 134 22.5 32.2 0.00 0.00 0.00 52 1011.3
20260903162027 32 111 24.1 38.6 0.00 0.00 0.00 54 1011.4
20260903161541 32 123 17.7 38.6 0.00 0.00 0.00 53 1011.4
20260903161025 32 128 19.3 33.8 0.00 0.00 0.00 54 1011.4
20260903160524 32 105 19.3 33.8 0.00 0.00 0.00 55 1011.3
20260903160045 32 138 20.9 33.8 0.00 0.00 0.00 56 1011.3
20260903155526 32 135 19.3 33.8 0.00 0.00 0.00 56 1011.4
20260903155032 31 113 19.3 33.8 0.00 0.00 0.00 57 1011.5
20260903154603 31 144 17.7 33.8 0.00 0.00 0.00 58 1011.5
20260903154024 31 139 20.9 33.8 0.00 0.00 0.00 58 1011.5
20260903153525 31 137 22.5 33.8 0.00 0.00 0.00 59 1011.4
20260903153051 31 98 20.9 37.0 0.00 0.00 0.00 59 1011.4
20260903152525 30 115 20.9 37.0 0.00 0.00 0.00 60 1011.5
20260903152024 31 132 20.9 37.0 0.00 0.00 0.00 60 1011.4
20260903151546 30 106 17.7 37.0 0.00 0.00 0.00 61 1011.4
20260903151025 30 119 22.5 37.0 0.00 0.00 0.00 61 1011.4
20260903150526 30 119 22.5 35.4 0.00 0.00 0.00 62 1011.4
20260903150046 30 145 16.1 33.8 0.00 0.00 0.00 62 1011.4
20260903145528 30 126 20.9 37.0 0.00 0.00 0.00 62 1011.4
20260903145024 30 126 20.9 37.0 0.00 0.00 0.00 63 1011.4
20260903144543 29 121 24.1 37.0 0.00 0.00 0.00 63 1011.4
20260903144029 29 126 17.7 37.0 0.00 0.00 0.00 64 1011.5
20260903143525 29 141 17.7 32.2 0.00 0.00 0.00 65 1011.4
20260903143101 28 135 19.3 33.8 0.00 0.00 0.00 65 1011.5
20260903142527 28 126 17.7 33.8 0.00 0.00 0.00 66 1011.5
20260903142025 28 112 22.5 35.4 0.00 0.00 0.00 66 1011.7
20260903141559 28 113 17.7 35.4 0.00 0.00 0.00 68 1011.6
20260903141027 28 111 19.3 30.6 0.00 0.00 0.00 69 1011.7
20260903140524 27 134 19.3 30.6 0.00 0.00 0.00 70 1011.8
20260903140046 27 114 17.7 30.6 0.00 0.00 0.00 70 1011.8
20260903135524 27 114 19.3 33.8 0.00 0.00 0.00 71 1011.7
20260903135028 27 128 20.9 33.8 0.00 0.00 0.00 71 1011.8
20260903134557 26 110 22.5 33.8 0.00 0.00 0.00 72 1011.8
20260903134024 26 111 16.1 30.6 0.00 0.00 0.00 73 1011.7
20260903133524 26 113 14.5 30.6 0.00 0.00 0.00 74 1011.6
20260903133043 26 114 16.1 30.6 0.00 0.00 0.00 74 1011.6
20260903132524 25 89 16.1 24.1 0.00 0.00 0.00 75 1011.5
20260903132024 25 109 11.3 19.3 0.00 0.00 0.00 76 1011.5
20260903131548 25 136 12.9 22.5 0.00 0.00 0.00 77 1011.5
20260903131024 25 111 12.9 22.5 0.00 0.00 0.00 78 1011.5
20260903130526 24 115 9.7 19.3 0.00 0.00 0.00 79 1011.5
20260903130044 23 119 11.3 19.3 0.00 0.00 0.00 80 1011.4
20260903125525 23 111 11.3 20.9 0.00 0.00 0.00 80 1011.4
20260903125024 23 117 12.9 20.9 0.00 0.00 0.00 81 1011.4
20260903124545 23 102 12.9 20.9 0.00 0.00 0.00 81 1011.3
20260903124024 23 104 14.5 19.3 0.00 0.00 0.00 81 1011.3
20260903123526 23 96 12.9 17.7 0.00 0.00 0.00 81 1011.3
20260903123048 22 119 12.9 17.7 0.00 0.00 0.00 81 1011.1
20260903122524 22 115 12.9 17.7 0.00 0.00 0.00 81 1011.0
20260903122024 22 125 11.3 17.7 0.00 0.00 0.00 81 1011.1
20260903121544 22 109 11.3 17.7 0.00 0.00 0.00 81 1011.1
20260903121025 22 111 11.3 16.1 0.00 0.00 0.00 80 1011.0
20260903120523 22 101 9.7 14.5 0.00 0.00 0.00 80 1010.9
20260903120045 22 103 8.0 14.5 0.00 0.00 0.00 80 1010.9
20260903115524 22 111 9.7 14.5 0.00 0.00 0.00 80 1010.9
20260903115024 22 110 9.7 16.1 0.00 0.00 0.00 79 1010.8
20260903114545 22 109 8.0 16.1 0.00 0.00 0.00 79 1010.7
20260903114024 22 101 9.7 16.1 0.00 0.00 0.00 79 1010.6
20260903113524 22 107 9.7 14.5 0.00 0.00 0.00 79 1010.5
20260903113046 23 107 8.0 12.9 0.00 0.00 0.00 78 1010.6
20260903112524 23 98 9.7 12.9 0.00 0.00 0.00 78 1010.6
20260903112027 23 100 8.0 11.3 0.00 0.00 0.00 77 1010.7
20260903111544 23 92 4.8 11.3 0.00 0.00 0.00 77 1010.8
20260903111024 23 113 4.8 9.7 0.00 0.00 0.00 77 1010.7
20260903110525 23 119 4.8 11.3 0.00 0.00 0.00 77 1010.8
20260903110054 23 108 6.4 11.3 0.00 0.00 0.00 77 1010.6
20260903105525 23 108 4.8 9.7 0.00 0.00 0.00 76 1010.7
20260903105024 23 114 4.8 11.3 0.00 0.00 0.00 76 1010.6
20260903104547 23 117 4.8 11.3 0.00 0.00 0.00 76 1010.6
20260903104024 23 111 6.4 12.9 0.00 0.00 0.00 76 1010.6
20260903103523 23 117 6.4 12.9 0.00 0.00 0.00 75 1010.7
20260903103052 23 121 8.0 12.9 0.00 0.00 0.00 75 1010.6
20260903102522 23 115 8.0 12.9 0.00 0.00 0.00 75 1010.6
20260903102027 23 113 6.4 11.3 0.00 0.00 0.00 74 1010.7
20260903101554 23 115 4.8 11.3 0.00 0.00 0.00 73 1010.8
20260903101023 24 119 6.4 11.3 0.00 0.00 0.00 73 1010.6
20260903100525 24 111 6.4 11.3 0.00 0.00 0.00 73 1010.5
20260903100045 24 117 6.4 11.3 0.00 0.00 0.00 72 1010.6
20260903095523 24 110 6.4 11.3 0.00 0.00 0.00 72 1010.6
20260903095026 24 116 6.4 14.5 0.00 0.00 0.00 72 1010.6
20260903094545 24 117 8.0 14.5 0.00 0.00 0.00 71 1010.4
20260903094024 25 117 8.0 12.9 0.00 0.00 0.00 70 1010.5
20260903093525 25 109 6.4 12.9 0.00 0.00 0.00 70 1010.6
20260903093103 25 109 4.8 12.9 0.00 0.00 0.00 70 1010.6
20260903092527 25 109 6.4 12.9 0.00 0.00 0.00 69 1010.6
20260903092024 25 121 6.4 14.5 0.00 0.00 0.00 69 1010.6
20260903091545 25 121 8.0 14.5 0.00 0.00 0.00 69 1010.6
20260903091024 25 103 8.0 14.5 0.00 0.00 0.00 68 1010.6
20260903090524 25 119 6.4 14.5 0.00 0.00 0.00 68 1010.5
20260903090048 25 128 8.0 14.5 0.00 0.00 0.00 68 1010.4
20260903085523 25 119 8.0 14.5 0.00 0.00 0.00 67 1010.4
20260903085024 25 128 8.0 17.7 0.00 0.00 0.00 67 1010.4
20260903084543 25 119 9.7 17.7 0.00 0.00 0.00 67 1010.3
20260903084026 25 123 9.7 17.7 0.00 0.00 0.00 66 1010.3
20260903083527 25 114 9.7 17.7 0.00 0.00 0.00 66 1010.2
20260903083047 26 121 9.7 17.7 0.00 0.00 0.00 66 1010.2
20260903082526 26 111 11.3 17.7 0.00 0.00 0.00 66 1010.4
20260903082024 26 102 9.7 17.7 0.00 0.00 0.00 65 1010.3
20260903081547 26 133 11.3 17.7 0.00 0.00 0.00 65 1010.3
20260903081024 26 115 11.3 17.7 0.00 0.00 0.00 65 1010.3
20260903080524 26 113 9.7 19.3 0.00 0.00 0.00 65 1010.2
20260903080047 26 110 12.9 19.3 0.00 0.00 0.00 65 1010.2
20260903075527 26 130 9.7 19.3 0.00 0.00 0.00 65 1010.1
20260903075028 26 114 11.3 17.7 0.00 0.00 0.00 64 1010.1
20260903074542 26 126 11.3 17.7 0.00 0.00 0.00 64 1010.0
20260903074026 26 116 9.7 17.7 0.00 0.00 0.00 64 1010.1
20260903073524 26 119 11.3 17.7 0.00 0.00 0.00 64 1010.0
20260903073046 26 99 11.3 16.1 0.00 0.00 0.00 63 1010.3
20260903072523 26 109 9.7 14.5 0.00 0.00 0.00 63 1010.3
20260903072029 26 110 9.7 14.5 0.00 0.00 0.00 63 1010.2
20260903071544 26 115 9.7 17.7 0.00 0.00 0.00 63 1010.1
20260903071025 26 111 9.7 17.7 0.00 0.00 0.00 63 1010.1
20260903070525 26 119 11.3 17.7 0.00 0.00 0.00 63 1010.2
20260903070047 26 117 9.7 17.7 0.00 0.00 0.00 62 1010.1
20260903065525 26 103 11.3 17.7 0.00 0.00 0.00 62 1010.2
20260903065023 26 105 11.3 17.7 0.00 0.00 0.00 62 1010.1
20260903064546 26 111 11.3 17.7 0.00 0.00 0.00 62 1010.0
20260903064024 26 115 11.3 17.7 0.00 0.00 0.00 62 1010.1
20260903063524 26 105 11.3 17.7 0.00 0.00 0.00 61 1010.0
20260903063109 26 102 12.9 17.7 0.00 0.00 0.00 61 1009.9
20260903062524 26 107 11.3 17.7 0.00 0.00 0.00 61 1010.0
20260903062028 27 109 11.3 16.1 0.00 0.00 0.00 61 1010.1
20260903061543 27 105 11.3 14.5 0.00 0.00 0.00 60 1010.0
20260903061024 27 108 11.3 16.1 0.00 0.00 0.00 60 1010.0
20260903060526 27 101 9.7 17.7 0.00 0.00 0.00 60 1009.9
20260903060048 27 106 9.7 17.7 0.00 0.00 0.00 60 1010.0
20260903055527 27 103 11.3 17.7 0.00 0.00 0.00 59 1009.9
20260903055024 27 103 11.3 16.1 0.00 0.00 0.00 59 1009.9
20260903054545 27 116 11.3 16.1 0.00 0.00 0.00 59 1009.9
20260903054024 27 121 11.3 17.7 0.00 0.00 0.00 59 1009.9
20260903053524 27 106 11.3 17.7 0.00 0.00 0.00 58 1010.0
20260903053041 27 111 12.9 17.7 0.00 0.00 0.00 58 1009.9
20260903052525 27 100 12.9 17.7 0.00 0.00 0.00 58 1009.9
20260903052025 27 107 11.3 17.7 0.00 0.00 0.00 58 1009.9
20260903051548 27 107 11.3 17.7 0.00 0.00 0.00 57 1010.0
20260903051023 27 111 11.3 16.1 0.00 0.00 0.00 57 1009.9
20260903050525 28 108 11.3 17.7 0.00 0.00 0.00 57 1009.9
20260903050107 28 101 11.3 19.3 0.00 0.00 0.00 56 1009.9